Flag for Malaysia Weather past 2 weeks in Kuala Lumpur, Malaysia

Now
77 °F

Partly cloudy.


Feels Like: 78 °F
Forecast: 76 / 92 °F
Wind: 1 mph from North

Location: Sultan Abdul Aziz Shah-Subang

Current Time: Mar 29, 2015 at 10:48:12 PM

Latest Report: Mar 29, 2015 at 10:00 PM


Visibility: N/A

Pressure: 29.86 "Hg

Humidity: 94%

Dew point: 75 °F

Location of Kuala LumpurLocation

Historic Weather in Kuala Lumpur — Graph

°F

Kuala Lumpur temperature yesterday

Maximum temperature yesterday: 95 °F (at 3:00 PM)
Minimum temperature yesterday: 75 °F (at 8:00 PM)
Average temperature yesterday: 84 °F

Past Weeks' High & Low Weather Summary

 TemperatureHumidityPressure
High97 °F (Mar 26, 4:00 PM)94% (Mar 18, 8:00 AM)29.98 "Hg (Mar 18, 8:00 AM)
Low75 °F (Mar 28, 8:00 PM)47% (Mar 26, 4:00 PM)29.71 "Hg (Mar 18, 5:00 PM)
Average84 °F78%29.86 "Hg
* Reported Mar 14 9:00 PM — Mar 29 9:00 PM, Kuala Lumpur, Weather by CustomWeather, © 2015

Note: Actual official high and low records may vary slightly from our data, if they occured in-between our weather recording intervals... More about our weather records

Advertising

Kuala Lumpur weather history for previous 24 hours

 ConditionsComfort  
Time TempWeatherWind HumidityBarometerVisibility
9:00 PM
Sun, Mar 29
75 °FPartly cloudy.1 mph94%29.83 "Hg5 mi
8:00 PM75 °FThunderstorms. More clouds than sun.8 mph94%29.83 "Hg3 mi
7:00 PM75 °FThunderstorms. Broken clouds.13 mph94%29.80 "Hg2 mi
6:00 PM91 °FBroken clouds.9 mph63%29.74 "Hg4 mi
5:00 PM93 °FBroken clouds.9 mph59%29.74 "HgN/A
4:00 PM93 °FBroken clouds.6 mph56%29.74 "HgN/A
3:00 PM95 °FBroken clouds.5 mph47%29.77 "HgN/A
2:00 PM95 °FBroken clouds.6 mph53%29.80 "HgN/A
1:00 PM93 °FBroken clouds.6 mph53%29.86 "HgN/A
12:00 PM91 °FBroken clouds.3 mph56%29.86 "HgN/A
11:00 AM88 °FPartly sunny.2 mph66%29.89 "HgN/A
10:00 AM84 °FPartly sunny.3 mph74%29.89 "HgN/A
9:00 AM81 °FPartly sunny.No wind89%29.86 "Hg6 mi
8:00 AM77 °FPartly cloudy.2 mph94%29.83 "Hg6 mi
7:00 AM77 °FPartly cloudy.No wind94%29.80 "Hg5 mi
6:00 AM77 °FPartly cloudy.2 mph94%29.80 "Hg5 mi
5:00 AM79 °FPartly cloudy.No wind89%29.77 "Hg5 mi
4:00 AM79 °FPartly cloudy.2 mph89%29.80 "Hg5 mi
3:00 AM79 °FPartly cloudy.3 mph89%29.80 "Hg5 mi
2:00 AM79 °FPartly cloudy.No wind89%29.83 "Hg4 mi
1:00 AM77 °FPartly cloudy.1 mph94%29.86 "Hg5 mi
12:00 AM79 °FPartly cloudy.2 mph89%29.86 "Hg5 mi
11:00 PM
Sat, Mar 28
79 °FPartly cloudy.5 mph89%29.89 "Hg5 mi
10:00 PM77 °FPartly cloudy.No wind94%29.86 "Hg5 mi
Weather by CustomWeather, © 2015

See weather overviewHow to use our weather pages